カタリナ-パンスターズ彗星

299P/Catalina-PanSTARRS (2006)

English version
Home page
Updated on March 30, 2014

---------------------------------------------------------------------

・ プロフィール

符号 299P/2005 EL284
発見日 2005年3月11日
発見光度 17.9等
発見者 M. E. Van Ness (LONEOS)

・ 軌道要素

Epoch 2005 Dec. 16.0 TT = JDT 2453720.5
T 2006 Jan. 2.03469 TT                                  MPC
q   3.1444413            (2000.0)            P               Q
n   0.10740816     Peri.  323.53489     -0.56067662     +0.80787385
a   4.3830645      Node   271.67554     -0.71026681     -0.58196275
e   0.2825930      Incl.   10.46798     -0.42563221     -0.09305487
P   9.18
From 75 observations 2005 Mar. 11-2014 Mar. 27, mean residual 0".5.

・ 光度変化

        m1 = 10.0 + 5 logΔ + 10.0 log r

---------------------------------------------------------------------

軌道要素はM.P.E.C. 2014-F71に掲載されたものです。
光度グラフはComet for Windowsで作成したものです。

---------------------------------------------------------------------

Copyright(C) Seiichi Yoshida (comet@aerith.net). All rights reserved.